sat.trackr.live / text

‹ back to catalog

STARLINK-5950

NORAD 56913 · 2023-083AP

PAYLOAD ACTIVE UNKNOWN

§ Identity

Operator
Country
US
Launch date
2023-06-12
Launch site
AFETR
Launch vehicle
Mass (kg)
RCS (m²)

Purposes: comms

External: N2YO · Heavens-Above · Gunter

§ Orbital elements

Epoch: 2026-09-20T16:44:00.124224Z

Period
94.27 min
Inclination
43.0030°
Eccentricity
0.0001227
Mean motion
15.27576642 rev/d
Perigee alt
482.2 km
Apogee alt
483.9 km
Semi-major
6,861.2 km
B*
2.9852e-6
RAAN
49.2407°
Arg perigee
259.9415°
Mean anomaly
100.1298°
Rev number
18,162

§ Raw data

STARLINK-59501 56913U 23083AP  26263.69722366 -.00000180  00000+0  29852-5 0  99902 56913  43.0030  49.2407 0001227 259.9415 100.1298 15.27576642181623

JSON: /api/v1/satellites/56913 · /tle

For live sub-satellite position, see the globe view (requires WebGL).

§ Visibility from observer

Set your observer location to see the next 7 days of passes ≥ 10°. The values pass through the URL so the page stays shareable.

No JS? Fill the form by hand. The geolocation button needs JavaScript.